Location: ???????
(55.8930°N, 38.0586°E)
Time: 17:46:47
(UTC+00:00)

NOSS 3-4 (C) - Pass Details

Date: 14 April 2024
Orbit: 806 x 1406 km, 63.4° (Epoch: 20 May)

Event Time Altitude Azimuth Distance (km) Brightness Sun altitude
Exits shadow 00:16:59 25° 229° (SW) 1,670 4.1 -15.8°
Maximum altitude 00:20:29 88° 142° (SE) 898 3.3 -15.5°
Drops below altitude 10° 00:26:49 10° 53° (NE) 2,746 7.2 -14.8°
Sets 00:29:35 0° 53° (NE) 3,788 8.5 -14.6°
